Location: Mococo
(38.0255°N, 122.1161°W)
Time: 02:26:57
(UTC+00:00)

NOSS 3-1 (C) - Pass Details

Date: 13 February 2026
Orbit: 618 x 1583 km, 63.4° (Epoch: 10 January)

Event Time Altitude Azimuth Distance (km) Brightness Sun altitude
Exits shadow 13:23:41 41° 249° (WSW) 966 3.1 -19.6°
Maximum altitude 13:25:02 59° 307° (NW) 796 2.8 -19.4°
Drops below altitude 10° 13:30:12 10° 26° (NNE) 2,354 5.8 -18.4°
Sets 13:32:56 0° 31° (NNE) 3,426 6.7 -17.8°
